User: anonymous   Login
Location: *
(1.3500°S, 147.5000°W)
Time: 13:11:38
(UTC+00:00)
Language:

ISS - Orbit

View from above orbital plane
View from above orbital plane
View from above satellite
View from above satellite

Ground track
Ground track

The orbit data is extracted from the following two-line orbital elements,

1 25544U 98067A   21208.17980969 -.00000447  00000-0  00000+0 0  9997
2 25544  51.6430 144.9602 0001621 199.7803 304.4707 15.48856848294797
Epoch (UTC): 27 July 2021 04:18:55
Eccentricity: 0.0001621
inclination: 51.6430°
perigee height: 419 km
apogee height: 421 km
right ascension of ascending node: 144.9602°
argument of perigee: 199.7803°
revolutions per day: 15.48856848
mean anomaly at epoch: 304.4707°
orbit number at epoch: 29479

The dashed part of the orbit path shows where the satellite is in the earth's shadow,  

DLR